Other Surface Observations
Issued by NWS Charleston, SC

Home | Current Version | Previous Version | Text Only | Print | Product List | Glossary On
Versions: 1 2 3 4 5 6 7 8 9 10 11 12 13 14 15 16 17 18 19 20 21 22 23 24 25 26 27 28 29 30 31 32 33 34 35 36 37 38 39 40 41 42 43 44 45 46 47 48 49 50
000
SXUS52 KCHS 190025
OSOCHS

MARINE OBSERVATIONS
NATIONAL WEATHER SERVICE CHARLESTON SC
700 PM EST THU DEC 18 2014

...DOWNTOWN CHARLESTON AND HARBOR...

CITY           SKY/WX    TMP DP  RH WIND       PRES   REMARKS
WATERFRONT PRK   N/A     54 N/A N/A NE5         N/A
FORT JOHNSON   NOT AVBL

...LAKE MOULTRIE...

CITY           SKY/WX    TMP DP  RH WIND       PRES   REMARKS
PINOPOLIS        N/A     55  45  67 VRB2      29.99F

...LAKE AND SUPPLEMENTAL COASTAL OBSERVATIONS...

STATION/POSITION TIME  TEMP    WIND        PRES    WAVE   SWELL
                       AIR SEA DIR/SP/G            HT/PER HT/PER/DIR
                 (UTC) (F)     (DEG/KT/KT) (MB)    (FT/S) (FT/S/D)
FORT PULASKI     0000   52 57  190/  3/  3 1019.6R
SAPELO ISLAND    0000   49        CALM     1019.0S
UPR LAKE MARION  NOT AVBL
WINYAH BAY       0000   46     320/  2     1018.0S
LAKE MURRAY      2300   52        CALM     1018.3S
ACE BASIN NERRS  0000   48        CALM     1018.0S


...C-MAN AND BUOY OBSERVATIONS...

STATION/POSITION TIME  TEMP    WIND        PRES    WAVE   SWELL
                       AIR SEA DIR/SP/G            HT/PER HT/PER/DIR
                 (UTC) (F)     (DEG/KT/KT) (MB)    (FT/S) (FT/S/D)
BUOY 41004       0000   60 72  330/  4/  8 1018.3R   2/10   2/10
BUOY 41008       0000   57 57  210/  4/  4 1019.1R   1/10   2/120/10
FOLLY BEACH CMAN 0000   55      90/  3/  3 1019.3R
CAPERS NS BUOY   2300   54      70/ 10/ 12   N/A
FRIPP NS BUOY    NOT AVBL
5E ST. MARYS GA  0000      61                N/A     1/11


STATION/POSITION TIME  TEMP    WIND        PRES    WAVE   SWELL
                       AIR SEA DIR/SP/G            HT/PER HT/PER/DIR
                 (UTC) (F)     (DEG/KT/KT) (MB)    (FT/S) (FT/S/D)
FRYING PAN BUOY  0000   56 65   40/  6/  8 1019.2F   2/ 4   2/100/ 8
BUOY 41025       0000   47                 1019.7R   3/ 7
CAPE LOOKOUT NC  0000   48      20/  5/  6 1019.4R
BUOY 41002       NOT AVBL
BUOY 41010       0000   70 76  290/  6/  8 1018.8R   2/10   2/ 80/10
ST AUGUSTINE FL  0000   57     240/  4/  4 1020.3R

$$



USA.gov is the U.S. government's official web portal to all federal, state and local government web resources and services.